Miscellaneous Local Product
Issued by NWS Hastings, NE

Home | Current Version | Previous Version | Graphics & Text | Print | Product List | Glossary On
Versions: 1 2 3 4 5 6 7 8 9 10 11 12 13 14 15 16 17 18 19 20 21 22 23 24 25 26 27 28 29 30 31 32 33 34 35 36 37 38 39 40 41 42 43 44 45 46 47 48 49 50
000
AXUS43 KGID 280002
MISGRI

GID CWA HOURLY WEATHER ROUNDUP
NATIONAL WEATHER SERVICE HASTINGS NE
700 PM CDT SUN JUL 27 2014

NOTE: "FAIR" INDICATES FEW OR NO CLOUDS BELOW 12,000 FEET WITH NO
SIGNIFICANT WEATHER AND/OR OBSTRUCTIONS TO VISIBILITY.

...SOUTH CENTRAL NEBRASKA...

CITY           SKY/WX    TMP DP  RH WIND       PRES   REMARKS
GRAND ISLAND   SUNNY     84  56  38 N13       30.17S
HASTINGS       SUNNY     82  52  35 N12       30.17S
KEARNEY        SUNNY     84  50  30 N13       30.18F
ORD            SUNNY     81  55  40 N9        30.16F
YORK           SUNNY     81  59  47 N13G18    30.15S THUNDER
AURORA         SUNNY     81  61  50 NE8       30.16S
LEXINGTON      SUNNY     83  52  34 N9        30.19F
HOLDREGE       SUNNY     82  56  40 CALM      30.18F
HEBRON         SUNNY     83  51  33 N8        30.14S

...NEBRASKA PANHANDLE...

CITY           SKY/WX    TMP DP  RH WIND       PRES   REMARKS
CHADRON        SUNNY     84  50  30 NE16      30.23F
ALLIANCE       MOSUNNY   86  46  24 E8        30.26F
SCOTTSBLUFF    SUNNY     85  52  32 MISG      30.26F
SIDNEY         SUNNY     86  43  22 VRB3      30.30F

...WESTERN AND NORTH CENTRAL NEBRASKA...

CITY           SKY/WX    TMP DP  RH WIND       PRES   REMARKS
VALENTINE      SUNNY     81  50  33 N14       30.22F
AINSWORTH      SUNNY     78  50  37 N12G22    30.22S
ONEILL         SUNNY     79  47  32 N14       30.19S
BROKEN BOW     SUNNY     82  50  32 N13       30.20S
IMPERIAL       SUNNY     86  46  24 N6        30.25S
NORTH PLATTE   SUNNY     84  49  29 N13       30.21S
MCCOOK         SUNNY     88  48  25 N5        30.20F

...EASTERN NEBRASKA...

CITY           SKY/WX    TMP DP  RH WIND       PRES   REMARKS
NORFOLK        SUNNY     78  57  48 N15       30.15S
SO SIOUX CITY  PTSUNNY   77  57  50 N17G23    30.12R
ALBION         SUNNY     78  52  40 N12G17    30.17R
OMAHA EPPLEY   MOSUNNY   79  56  45 N17       30.10S
OFFUTT AFB     MOSUNNY   79  58  48 N13       30.10R
MILLARD        MOSUNNY   78  58  48 N6G16     30.11S
LINCOLN        SUNNY     82  56  40 N17       30.13S
NEBRASKA CITY  SUNNY     78  54  42 N15       30.11S
BEATRICE       SUNNY     81  60  48 N15       30.12S
FALLS CITY     NOT AVBL

...NORTHERN KANSAS...

CITY           SKY/WX    TMP DP  RH WIND       PRES   REMARKS
GOODLAND       SUNNY     86  46  24 E8        30.26R
HILL CITY      SUNNY     89  49  25 E9        30.17F
NORTON         CLEAR     88  43  20 NE12      30.18S
PHILLIPSBURG   SUNNY     88  46  23 N12       30.16F
SMITH CENTER   SUNNY     86  50  28 N9        30.16S
HAYS           SUNNY     90  48  24 N13       30.16S
RUSSELL        SUNNY     89  48  24 N10       30.14S
CONCORDIA      SUNNY     84  55  36 N13       30.13S
SALINA         SUNNY     90  48  23 N16       30.11S
TOPEKA         SUNNY     87  56  34 N12       30.08R



USA.gov is the U.S. government's official web portal to all federal, state and local government web resources and services.